Flag for Germany Weather past 2 weeks in Kaufbeuren, Bavaria, Germany

Now
64 °F

Scattered showers. Broken clouds.


Feels Like: 64 °F
Forecast: 52 / 63 °F
Wind: 28 mph from West

Location: Altenstadt Airport

Current Time: Sep 1, 2015 at 6:55:37 PM

Latest Report: Sep 1, 2015 at 5:20 PM


Visibility: 6 mi

Pressure: 29.98 "Hg (27.64 "Hg at 693m altitude)

Humidity: 73%

Dew point: 55 °F

Location of KaufbeurenLocation

Historic Weather in Kaufbeuren — Graph

°F

Kaufbeuren temperature yesterday

Maximum temperature yesterday: 82 °F (at 2:20 PM)
Minimum temperature yesterday: 61 °F (at 4:20 AM)
Average temperature yesterday: 71 °F

Past Weeks' High & Low Weather Summary

 TemperatureHumidityPressure
High86 °F (Aug 30, 3:20 PM)100% (Aug 17, 10:20 PM)30.30 "Hg (Aug 17, 10:20 PM)
Low45 °F (Aug 21, 4:20 AM)34% (Aug 27, 1:20 PM)29.77 "Hg (Aug 24, 9:20 AM)
Average63 °F74%30.08 "Hg
* Reported Aug 17 5:20 PM — Sep 1 5:20 PM, Kaufbeuren, Weather by CustomWeather, © 2015

Note: Actual official high and low records may vary slightly from our data, if they occured in-between our weather recording intervals... More about our weather records

Advertising

Kaufbeuren weather history for previous 24 hours

 ConditionsComfort  
Time TempWeatherWind HumidityBarometerVisibility
5:20 PM
Tue, Sep 1
64 °FScattered showers. Broken clouds.28 mph73%29.98 "Hg6 mi
4:46 PM68 °FRain showers. Partly sunny.25 mph60%29.95 "Hg5 mi
4:20 PM72 °FScattered showers. Broken clouds.21 mph53%29.92 "HgN/A
3:20 PM73 °FPartly sunny.26 mph57%29.92 "HgN/A
2:20 PM79 °FPassing clouds.14 mph51%29.89 "HgN/A
1:20 PM81 °FPassing clouds.7 mph39%29.89 "HgN/A
12:20 PM81 °FPassing clouds.5 mph45%29.89 "HgN/A
11:20 AM79 °FPassing clouds.2 mph48%29.89 "HgN/A
10:20 AM75 °FPassing clouds.1 mph54%29.89 "HgN/A
9:20 AM70 °FPassing clouds.1 mph64%29.92 "HgN/A
8:20 AM64 °FPassing clouds.3 mph73%29.92 "HgN/A
7:20 AM63 °FPassing clouds.5 mph73%29.92 "HgN/A
6:20 AM63 °FPassing clouds.6 mph73%29.95 "HgN/A
5:20 AM61 °FPassing clouds.3 mph72%29.95 "HgN/A
4:20 AM61 °FCool.3 mph72%29.98 "HgN/A
3:20 AM63 °FMild.3 mph68%29.98 "HgN/A
2:20 AM64 °FMild.5 mph64%29.98 "HgN/A
1:20 AM61 °FCool.5 mph72%29.98 "HgN/A
12:20 AM63 °FMild.2 mph73%29.98 "HgN/A
11:20 PM
Mon, Aug 31
63 °FMild.6 mph68%30.01 "HgN/A
10:20 PM64 °FMild.5 mph64%30.01 "HgN/A
9:20 PM68 °FMild.5 mph56%30.01 "HgN/A
8:20 PM70 °FPassing clouds.6 mph53%30.01 "HgN/A
7:20 PM77 °FPassing clouds.2 mph44%30.01 "HgN/A
6:20 PM79 °FPassing clouds.8 mph39%30.01 "HgN/A
Weather by CustomWeather, © 2015

See weather overviewHow to use our weather pages